Montana Department of Transportation

Main Content

Accidents and Incidents Report

Hourly Weather Roundup

ASUS45 KTFX 232213

RWRMT 

Montana Regional Weather Roundup

National Weather Service Great Falls MT

400 PM MDT WED OCT 23 2019



NOTE: "FAIR" indicates few or no clouds below 12,000 feet with no

significant weather and/or obstructions to visibility.



MTZ001.007-043-232300-

West of the divide

  

CITY           SKY/WX    TMP DP  RH WIND       PRES   REMARKS

Kalispell      FAIR      51  21  30 S7        30.31S                  

Missoula       FAIR      48  25  40 SW3       30.34F                  

Butte          PTSUNNY   35  26  69 N7        30.34F WCI  29          

Anaconda         N/A     36  28  75 N9        30.35S WCI  29          

Deer Lodge       N/A     36  28  75 N5        30.39S                  

Hamilton       CLOUDY    52  19  28 VRB5G13   30.34S                  

Libby            N/A     54  18  24 W5        30.33R                  

Mullan Pass    FAIR      35  19  52 VRB3      30.34R                  

--------------------------------



MTZ008-052.055-232300-

Southwest Montana

  

CITY           SKY/WX    TMP DP  RH WIND       PRES   REMARKS

Bozeman        PTSUNNY   38  27  64 N13       30.35R WCI  30          

Dillon         PTSUNNY   36  29  75 NE9       30.32R WCI  29          

Ennis          PTSUNNY   34  27  75 N9G16     30.36R WCI  26          

W Yellowstone  PTSUNNY   34  16  47 NE13      30.25R WCI  25          

--------------------------------



MTZ009-010-012-014-046-048-049-054-232300-

East Slopes and Central Montana

  

CITY           SKY/WX    TMP DP  RH WIND       PRES   REMARKS

Cut Bank       PTSUNNY   36  29  75 W12       30.36R WCI  28          

Great Falls    CLOUDY    34  28  79 W14       30.38S WCI  25          

Helena         CLOUDY    38  27  64 N6        30.40R                  

Augusta        PTSUNNY   30  31 100 W6        30.37F WCI  24          

Bowmans Corner PTSUNNY   29  26  91 SW5       30.37F                  

Fairfield      PTSUNNY   36  25  66 NW9       30.37F WCI  29          

Power          FLURRIES  35  29  80 W12       30.37S WCI  26          

Raynesford     FLURRIES  32  29  88 SW14      30.37S WCI  22          

Ulm            LGT RAIN  34  31  88 W7        30.41S WCI  28          

--------------------------------



MTZ011-013-016-021-045-047-050-051-232300-

North Central Montana

  

CITY           SKY/WX    TMP DP  RH WIND       PRES   REMARKS

Havre          PTSUNNY   41  27  57 NW16G23   30.31R                  

Lewistown      CLOUDY    36  26  67 W18G29    30.32R WCI  26          

Chinook          N/A     41  27  56 W17G29    30.29R                  

Denton         PTSUNNY   38  25  60 W22       30.30S WCI  27          

Fort Benton      N/A     41  28  60 S18       30.37S                  

Geyser         FLURRIES  33  29  86 W21       30.34S WCI  20          

Roy            FAIR      38  27  64 NW23G35   30.27R WCI  27          

Stanford       PTSUNNY   32  28  84 W17G25    30.34R WCI  21          

Winifred       PTSUNNY   38  28  68 W23       30.30R WCI  27          

--------------------------------



MTZ017.020-022.027-061-062-232300-

Northeast Montana

  

CITY           SKY/WX    TMP DP  RH WIND       PRES   REMARKS

Glasgow        CLOUDY    40  34  79 NW15      30.23R                  

Glendive       CLOUDY    40  26  57 W15       30.23R                  

Jordan           N/A     40  30  67 NW20      30.25R                  

Malta          PTSUNNY   39  32  75 NW15G22   30.25R WCI  31          

Poplar           N/A     37  30  75 W8        30.23R WCI  31          

Sidney         FAIR      42  23  46 W12       30.22R                  

Wolf Point     CLOUDY    38  33  82 W6        30.23R                  

--------------------------------



MTZ028.42-056.058-232300-

Southcentral and southeast Montana

  

CITY           SKY/WX    TMP DP  RH WIND       PRES   REMARKS

Baker          FAIR      38  23  55 NW13G21   30.22R WCI  30          

Big Timber     PTSUNNY   32  32 100 NE7       30.34R WCI  26          

Billings       FAIR      42  23  46 N20       30.32RForsyth          N/A     41  34  75 W10G16    30.28R                  

Harlowton      PTSUNNY   39  18  43 N20       30.32R WCI  29          

Livingston     FAIR      36  26  67 NW20      30.33R WCI  25          

Miles City     LGT RAIN  38  36  92 NW8       30.25R                  

--------------------------------



Regional Reports...Dakotas/MN

  

CITY           SKY/WX    TMP DP  RH WIND       PRES   REMARKS

Williston      FAIR      42  20  41 NW15G21   30.19R                  

Minot          CLOUDY    42  25  50 W13       30.13R                  

Dickinson      PTSUNNY   35  24  64 NW14G24   30.18R WCI  26          

Beach          FAIR      37  23  56 NW13      30.22R WCI  29          

Crosby         FAIR      45  18  33 NW13G22   30.18R                  

Hettinger      PTSUNNY   34  25  69 NW14      30.21R WCI  25          

Tioga          FAIR      43  18  36 NW15      30.17R                  

Watford City   FAIR      43  21  42 NW14      30.19R                  

Bismarck       FAIR      40  21  46 NW21G33   30.17R                  

Grand Forks    PTSUNNY   38  26  62 N17       30.06R WCI  28          

Fargo          CLOUDY    40  30  67 NW13      30.05R                  

Rapid City     FAIR      36  28  73 N20G30    30.20R WCI  25          

Intl Falls     CLOUDY    39  31  72 NW14G21   29.89R WCI  31          

Duluth         CLOUDY    44  31  60 NW12      29.88R                  

Minneapolis    PTSUNNY   44  32  62 NW8       29.95R                  

--------------------------------



Regional Reports...WY/ID/WA

  

CITY           SKY/WX    TMP DP  RH WIND       PRES   REMARKS

Buffalo WY     FAIR      35  30  82 N26G38    30.22R WCI  22          

Cody           FAIR      39  22  50 N17       30.29R WCI  30          

Gillette       CLOUDY    35  31  85 N13       30.22R FOG     WCI  26  

Powell         PTSUNNY   36  23  60 NW20G29   30.28  WCI  25          

Sheridan       PTSUNNY   40  33  76 N14       30.28R                  

Yellowstone La   N/A     28  18  66 VRB6      30.28R WCI  22          

Boise          FAIR      58  24  27 NW21G28   30.33F                  

Couer d'Alene  FAIR      54  27  35 CALM      30.41R                  

Idaho Falls    PTSUNNY   48  16  27 N16G25    30.28R                  

Salmon         FAIR      50  19  29 N10       30.33S                  

Spokane        PTSUNNY   53  25  33 N10       30.41S                  

Seattle        PTSUNNY   57  44  62 N9        30.47F                  

--------------------------------



Regional Reports...Alberta

  

CITY           SKY/WX    TMP DP  RH WIND       PRES   REMARKS

--------------------------------



Regional Reports...Saskatchewan

  

CITY           SKY/WX    TMP DP  RH WIND       PRES   REMARKS

--------------------------------